Location: Snead
(33.5657°N, 82.1207°W)
Time: 01:14:44
(UTC+00:00)

Envisat - Visible Passes

Search period start: 18 July 2024 00:00
Search period end: 28 July 2024 00:00
Orbit: 762 x 764 km, 98.3° (Epoch: 17 July)

Date Brightness Start Highest point End Pass type
(mag) Time Alt. Az. Time Alt. Az. Time Alt. Az.
18 Jul 4.1 08:04:09 10° NNE 08:08:49 37° E 08:11:05 25° SE visible
18 Jul 4.4 09:43:46 10° NNW 09:47:29 21° WNW 09:51:13 10° WSW visible
19 Jul 5.3 07:28:20 10° ENE 07:31:13 15° E 07:33:13 12° ESE visible
19 Jul 3.3 09:05:30 10° N 09:10:23 49° WNW 09:13:21 22° SW visible
20 Jul 3.2 08:28:01 10° NNE 08:33:04 68° ESE 08:35:28 31° S visible
21 Jul 4.6 07:51:18 10° NE 07:55:34 27° E 07:57:35 21° SE visible
21 Jul 4.1 09:30:09 10° NNW 09:34:25 28° WNW 09:37:44 14° WSW visible
22 Jul 5.6 07:16:54 10° E 07:17:53 11° E 07:18:53 10° ESE visible
22 Jul 3.0 08:52:12 10° N 08:57:14 68° WNW 08:59:51 28° SSW visible
23 Jul 3.7 08:14:57 10° NNE 08:19:51 49° E 08:21:57 31° SSE visible
23 Jul 4.7 09:55:18 10° NNW 09:58:22 16° WNW 10:01:25 10° WSW visible
24 Jul 5.0 07:38:37 10° NE 07:42:18 20° E 07:44:03 17° ESE visible
24 Jul 3.7 09:16:40 10° N 09:21:19 37° WNW 09:24:12 20° SW visible
25 Jul 2.9 08:38:58 10° NNE 08:44:04 89° ESE 08:46:19 34° SSW visible
26 Jul 4.2 08:01:58 10° NNE 08:06:37 35° E 08:08:25 27° SE visible
26 Jul 4.4 09:41:30 10° NNW 09:45:18 22° WNW 09:48:33 12° WSW visible
27 Jul 5.3 07:26:15 10° ENE 07:28:59 14° E 07:30:31 13° ESE visible
27 Jul 3.2 09:03:16 10° N 09:08:10 51° WNW 09:10:40 27° SW visible
